TimeMDT,TemperatureF,Dew PointF,Humidity,Sea Level PressureIn,VisibilityMPH,Wind Direction,Wind SpeedMPH,Gust SpeedMPH,PrecipitationIn,Events,Conditions,WindDirDegrees,DateUTC
12:53 AM,23.0,12.9,65,30.12,10.0,North,8.1,-,N/A,,Mostly Cloudy,360,2013-03-10 07:53:00
1:53 AM,25.0,12.9,60,30.13,10.0,NNW,11.5,-,N/A,,Mostly Cloudy,340,2013-03-10 08:53:00
3:53 AM,21.0,10.9,65,30.15,10.0,North,8.1,-,N/A,,Scattered Clouds,10,2013-03-10 09:53:00
4:53 AM,21.0,14.0,74,30.16,10.0,North,10.4,-,N/A,,Scattered Clouds,10,2013-03-10 10:53:00
5:53 AM,19.4,12.2,74,30.08,10.0,North,11.5,-,N/A,,Mostly Cloudy,10,2013-03-10 11:53:00
6:53 AM,21.9,14.0,72,30.16,10.0,North,15.0,-,N/A,,Mostly Cloudy,360,2013-03-10 12:53:00
7:53 AM,19.9,12.0,71,30.18,10.0,NNW,9.2,-,N/A,,Scattered Clouds,330,2013-03-10 13:53:00
8:53 AM,24.1,14.0,65,30.18,10.0,NW,5.8,-,N/A,,Partly Cloudy,310,2013-03-10 14:53:00
9:53 AM,28.0,14.0,56,30.18,10.0,Calm,Calm,-,N/A,,Partly Cloudy,0,2013-03-10 15:53:00
10:53 AM,28.9,15.1,56,30.17,10.0,Calm,Calm,-,N/A,,Partly Cloudy,0,2013-03-10 16:53:00
11:53 AM,32.0,12.9,45,30.14,10.0,NNW,4.6,-,N/A,,Partly Cloudy,340,2013-03-10 17:53:00
12:53 PM,33.1,14.0,46,30.14,10.0,NE,4.6,-,N/A,,Scattered Clouds,40,2013-03-10 18:53:00
1:53 PM,30.9,19.0,61,30.14,10.0,East,10.4,-,N/A,,Scattered Clouds,90,2013-03-10 19:53:00
2:53 PM,30.9,19.9,64,30.12,10.0,ESE,9.2,-,N/A,,Scattered Clouds,110,2013-03-10 20:53:00
3:53 PM,33.1,18.0,54,30.15,10.0,SSE,4.6,-,N/A,,Scattered Clouds,150,2013-03-10 21:53:00
4:53 PM,33.1,19.0,56,30.14,10.0,South,8.1,-,N/A,,Scattered Clouds,190,2013-03-10 22:53:00
5:53 PM,33.1,19.9,59,30.13,10.0,South,9.2,-,N/A,,Scattered Clouds,190,2013-03-10 23:53:00
6:53 PM,30.0,21.0,69,30.14,10.0,SSE,8.1,-,N/A,,Scattered Clouds,150,2013-03-11 00:53:00
8:53 PM,33.1,19.0,56,30.09,10.0,SSW,9.2,-,N/A,,Partly Cloudy,210,2013-03-11 02:53:00
9:53 PM,32.0,18.0,56,30.07,10.0,SW,9.2,-,N/A,,Partly Cloudy,220,2013-03-11 03:53:00
10:53 PM,30.9,17.1,57,30.07,10.0,SW,8.1,-,N/A,,Clear,230,2013-03-11 04:53:00
11:53 PM,30.0,17.1,59,30.04,10.0,SW,10.4,-,N/A,,Partly Cloudy,220,2013-03-11 05:53:00
12:53 AM,32.0,17.1,54,30.00,10.0,SW,12.7,-,N/A,,Scattered Clouds,220,2013-03-11 06:53:00